User: anonymous
Location: Unspecified
(0.0000°N, 0.0000°E)
Time: 12:20:41
(UTC+00:00)
Language:

Tiros 1 despin weight - Orbit

View from above orbital plane
View from above orbital plane
View from above satellite
View from above satellite

Ground track
Ground track

The orbit data is extracted from the following two-line orbital elements,

1 00115U 60002D   14209.09406919  .00000599  00000-0  10473-3 0  4197
2 00115 048.1658 167.4020 0036215 138.1642 280.9249 14.80625508893703
Epoch (UTC): 28 July 2014 02:15:27
Eccentricity: 0.0036215
inclination: 48.1658°
perigee height: 602 km
apogee height: 653 km
right ascension of ascending node: 167.4020°
argument of perigee: 138.1642°
revolutions per day: 14.80625508
mean anomaly at epoch: 280.9249°
orbit number at epoch: 89370

The dashed part of the orbit path shows where the satellite is in the earth's shadow,  

DLR